Location: Central Coast
(33.3208°S, 151.2336°E)
Time: 11:21:51
(UTC+11:00)

Tiangong 2 - Visible Passes

Search period start: 21 January 2018 00:00
Search period end: 31 January 2018 00:00
Orbit: 384 x 390 km, 42.8° (Epoch: 20 January)

Date Brightness Start Highest point End Pass type
(mag) Time Alt. Az. Time Alt. Az. Time Alt. Az.
21 Jan 3.6 20:47:51 10° SW 20:50:03 17° S 20:52:15 10° SE visible
21 Jan 3.0 22:24:14 10° SW 22:26:13 30° SSW 22:26:13 30° SSW visible
22 Jan 2.7 21:25:40 10° SW 21:28:32 29° SSE 21:29:59 20° ESE visible
23 Jan 1.9 22:03:31 10° WSW 22:06:03 51° WSW 22:06:03 51° WSW visible
24 Jan 1.7 21:04:51 10° SW 21:07:59 48° SSE 21:09:53 20° E visible
25 Jan 1.9 21:42:57 10° WSW 21:46:00 40° NW 21:46:01 40° NW visible
26 Jan 1.1 20:44:05 10° WSW 20:47:18 84° NW 20:49:58 14° ENE visible
27 Jan 3.1 21:22:45 10° W 21:25:08 19° NW 21:26:14 16° NNW visible
28 Jan 2.2 20:23:30 10° WSW 20:26:31 38° NW 20:29:31 10° NE visible
